Time,TemperatureF,DewpointF,PressureIn,WindDirection,WindDirectionDegrees,WindSpeedMPH,WindSpeedGustMPH,Humidity,HourlyPrecipIn,Conditions,Clouds,dailyrainin,SoftwareType,DateUTC
2013-03-11 07:23:00,36.0,34.0,30.30,SSW,206,0.0,6.0,91,0.00,,,0.00,,2013-03-11 11:23:00,
2013-03-11 07:33:00,36.0,34.0,30.30,SSW,207,0.0,0.0,91,0.00,,,0.00,,2013-03-11 11:33:00,
2013-03-11 07:43:00,36.0,34.0,30.30,SSW,207,0.0,0.0,91,0.00,,,0.00,,2013-03-11 11:43:00,
2013-03-11 07:53:00,36.0,34.0,30.29,SSW,207,0.0,3.0,91,0.00,,,0.00,,2013-03-11 11:53:00,
2013-03-11 08:02:00,36.0,34.0,30.29,SSW,207,1.0,5.0,91,0.00,,,0.00,,2013-03-11 12:02:00,
2013-03-11 08:12:00,36.0,34.0,30.29,SSW,207,1.0,5.0,91,0.00,,,0.00,,2013-03-11 12:12:00,
2013-03-11 08:22:00,37.0,35.0,30.29,SSW,207,1.0,5.0,91,0.00,,,0.00,,2013-03-11 12:22:00,
2013-03-11 08:32:00,37.0,35.0,30.29,SSW,206,0.0,6.0,91,0.00,,,0.00,,2013-03-11 12:32:00,
2013-03-11 08:43:00,37.0,35.0,30.29,SSW,206,0.0,6.0,91,0.00,,,0.00,,2013-03-11 12:43:00,
2013-03-11 08:53:00,37.0,35.0,30.29,SSW,196,0.0,6.0,91,0.00,,,0.00,,2013-03-11 12:53:00,
2013-03-11 09:02:00,37.0,35.0,30.28,South,170,0.0,5.0,91,0.00,,,0.00,,2013-03-11 13:02:00,
2013-03-11 09:12:00,37.0,35.0,30.28,South,170,0.0,5.0,91,0.00,,,0.00,,2013-03-11 13:12:00,
2013-03-11 09:22:00,38.0,35.0,30.28,SSW,205,0.0,5.0,90,0.00,,,0.00,,2013-03-11 13:22:00,
2013-03-11 09:32:00,38.0,35.0,30.28,SSW,207,0.0,6.0,89,0.00,,,0.00,,2013-03-11 13:32:00,
2013-03-11 09:42:00,38.0,35.0,30.28,SSW,207,0.0,6.0,89,0.00,,,0.00,,2013-03-11 13:42:00,
2013-03-11 09:53:00,38.0,35.0,30.28,SSW,213,2.0,5.0,89,0.00,,,0.00,,2013-03-11 13:53:00,
2013-03-11 10:02:00,38.0,35.0,30.28,SSW,211,0.0,9.0,88,0.00,,,0.00,,2013-03-11 14:02:00,
2013-03-11 10:12:00,38.0,35.0,30.28,SSW,211,0.0,9.0,88,0.00,,,0.00,,2013-03-11 14:12:00,
2013-03-11 10:22:00,39.0,36.0,30.28,South,183,1.0,6.0,88,0.00,,,0.00,,2013-03-11 14:22:00,
2013-03-11 10:33:00,39.0,35.0,30.29,South,181,0.0,4.0,87,0.00,,,0.00,,2013-03-11 14:33:00,
2013-03-11 10:42:00,39.0,35.0,30.29,South,181,0.0,4.0,87,0.00,,,0.00,,2013-03-11 14:42:00,
2013-03-11 10:53:00,39.0,35.0,30.29,South,172,0.0,7.0,87,0.00,,,0.00,,2013-03-11 14:53:00,
2013-03-11 11:02:00,40.0,36.0,30.30,South,182,2.0,7.0,86,0.00,,,0.00,,2013-03-11 15:02:00,
2013-03-11 11:12:00,40.0,36.0,30.30,South,182,2.0,7.0,86,0.00,,,0.00,,2013-03-11 15:12:00,
2013-03-11 11:22:00,41.0,37.0,30.29,South,170,0.0,5.0,85,0.00,,,0.00,,2013-03-11 15:22:00,
2013-03-11 11:32:00,41.0,37.0,30.29,SSE,148,4.0,9.0,84,0.00,,,0.00,,2013-03-11 15:32:00,
2013-03-11 11:42:00,41.0,37.0,30.29,SSE,148,4.0,9.0,84,0.00,,,0.00,,2013-03-11 15:42:00,
2013-03-11 11:53:00,42.0,38.0,30.29,SSE,147,0.0,4.0,84,0.00,,,0.00,,2013-03-11 15:53:00,
2013-03-11 12:02:00,42.0,38.0,30.29,SSW,205,2.0,11.0,84,0.00,,,0.00,,2013-03-11 16:02:00,
2013-03-11 12:12:00,42.0,38.0,30.29,SSW,205,2.0,11.0,84,0.00,,,0.00,,2013-03-11 16:12:00,
2013-03-11 12:22:00,43.0,38.0,30.29,SSE,161,1.0,7.0,84,0.00,,,0.00,,2013-03-11 16:22:00,
2013-03-11 12:32:00,43.0,38.0,30.29,SSW,198,4.0,11.0,83,0.00,,,0.00,,2013-03-11 16:32:00,
2013-03-11 12:43:00,43.0,38.0,30.29,SSW,198,4.0,11.0,83,0.00,,,0.00,,2013-03-11 16:43:00,
2013-03-11 12:52:00,43.0,38.0,30.28,SSW,207,3.0,10.0,83,0.00,,,0.00,,2013-03-11 16:52:00,
2013-03-11 13:02:00,43.0,38.0,30.28,South,191,2.0,10.0,83,0.00,,,0.00,,2013-03-11 17:02:00,
2013-03-11 13:15:00,43.0,38.0,30.28,South,191,2.0,10.0,83,0.00,,,0.00,,2013-03-11 17:15:00,
2013-03-11 13:26:00,43.0,38.0,30.27,South,185,1.0,7.0,84,0.00,,,0.00,,2013-03-11 17:26:00,
2013-03-11 13:36:00,43.0,38.0,30.27,SSW,209,1.0,6.0,84,0.00,,,0.00,,2013-03-11 17:36:00,
2013-03-11 13:42:00,43.0,38.0,30.27,SSW,209,1.0,6.0,84,0.00,,,0.00,,2013-03-11 17:42:00,
2013-03-11 13:53:00,44.0,39.0,30.27,SSW,198,1.0,9.0,83,0.00,,,0.00,,2013-03-11 17:53:00,
2013-03-11 14:02:00,45.0,40.0,30.27,South,170,1.0,13.0,82,0.00,,,0.00,,2013-03-11 18:02:00,
2013-03-11 14:12:00,45.0,40.0,30.27,South,170,1.0,13.0,82,0.00,,,0.00,,2013-03-11 18:12:00,
2013-03-11 14:23:00,45.0,40.0,30.27,South,170,1.0,13.0,82,0.00,,,0.00,,2013-03-11 18:23:00,
2013-03-11 14:32:00,45.0,40.0,30.24,ESE,113,4.0,12.0,83,0.00,,,0.00,,2013-03-11 18:32:00,
2013-03-11 14:42:00,45.0,40.0,30.24,ESE,113,4.0,12.0,83,0.00,,,0.00,,2013-03-11 18:42:00,
2013-03-11 14:53:00,45.0,40.0,30.24,SSE,163,6.0,13.0,82,0.00,,,0.00,,2013-03-11 18:53:00,
2013-03-11 15:02:00,44.0,39.0,30.23,SSW,202,3.0,11.0,84,0.00,,,0.00,,2013-03-11 19:02:00,
2013-03-11 15:12:00,44.0,39.0,30.23,SSW,202,3.0,11.0,84,0.00,,,0.00,,2013-03-11 19:12:00,
2013-03-11 15:22:00,45.0,40.0,30.24,ESE,117,4.0,15.0,84,0.00,,,0.00,,2013-03-11 19:22:00,
2013-03-11 15:33:00,44.0,40.0,30.24,SE,142,1.0,11.0,85,0.00,,,0.00,,2013-03-11 19:33:00,
2013-03-11 15:42:00,44.0,40.0,30.24,SE,142,1.0,11.0,85,0.00,,,0.00,,2013-03-11 19:42:00,
2013-03-11 15:53:00,45.0,40.0,30.23,SW,235,3.0,12.0,84,0.00,,,0.00,,2013-03-11 19:53:00,
2013-03-11 16:02:00,45.0,40.0,30.23,SE,140,5.0,10.0,83,0.00,,,0.00,,2013-03-11 20:02:00,
2013-03-11 16:12:00,45.0,40.0,30.23,SE,140,5.0,10.0,83,0.00,,,0.00,,2013-03-11 20:12:00,
2013-03-11 16:22:00,45.0,40.0,30.23,SE,139,6.0,11.0,84,0.00,,,0.00,,2013-03-11 20:22:00,
2013-03-11 16:32:00,44.0,40.0,30.23,SE,146,5.0,11.0,85,0.00,,,0.00,,2013-03-11 20:32:00,
2013-03-11 16:43:00,44.0,40.0,30.23,SE,146,5.0,11.0,85,0.00,,,0.00,,2013-03-11 20:43:00,
2013-03-11 16:53:00,44.0,40.0,30.22,East,92,2.0,12.0,86,0.00,,,0.00,,2013-03-11 20:53:00,
2013-03-11 17:03:00,44.0,40.0,30.22,SSW,192,1.0,5.0,86,0.00,,,0.00,,2013-03-11 21:03:00,
2013-03-11 17:12:00,44.0,40.0,30.22,SSW,192,1.0,5.0,86,0.00,,,0.00,,2013-03-11 21:12:00,
2013-03-11 17:22:00,44.0,40.0,30.22,SSE,155,0.0,12.0,85,0.00,,,0.00,,2013-03-11 21:22:00,
2013-03-11 17:32:00,44.0,40.0,30.22,ESE,114,2.0,5.0,86,0.00,,,0.00,,2013-03-11 21:32:00,
2013-03-11 17:44:00,44.0,40.0,30.22,ESE,114,2.0,5.0,86,0.00,,,0.00,,2013-03-11 21:44:00,
2013-03-11 17:53:00,43.0,39.0,30.22,SE,134,2.0,9.0,87,0.00,,,0.00,,2013-03-11 21:53:00,
2013-03-11 18:03:00,43.0,40.0,30.22,ESE,117,1.0,8.0,88,0.00,,,0.00,,2013-03-11 22:03:00,
2013-03-11 18:12:00,43.0,40.0,30.22,ESE,117,1.0,8.0,88,0.00,,,0.00,,2013-03-11 22:12:00,
2013-03-11 18:22:00,42.0,39.0,30.22,SE,144,1.0,11.0,89,0.00,,,0.00,,2013-03-11 22:22:00,
2013-03-11 18:32:00,42.0,39.0,30.22,SSW,206,2.0,9.0,89,0.00,,,0.00,,2013-03-11 22:32:00,
2013-03-11 18:43:00,42.0,39.0,30.22,SSW,206,2.0,9.0,89,0.00,,,0.00,,2013-03-11 22:43:00,
2013-03-11 18:53:00,42.0,39.0,30.22,South,173,1.0,5.0,90,0.00,,,0.00,,2013-03-11 22:53:00,
2013-03-11 19:03:00,42.0,39.0,30.22,SSW,209,2.0,9.0,90,0.00,,,0.00,,2013-03-11 23:03:00,
2013-03-11 19:12:00,42.0,39.0,30.22,SSW,209,2.0,9.0,90,0.00,,,0.00,,2013-03-11 23:12:00,
2013-03-11 19:22:00,42.0,39.0,30.22,South,180,2.0,8.0,90,0.00,,,0.00,,2013-03-11 23:22:00,
2013-03-11 19:32:00,42.0,39.0,30.21,SSE,147,4.0,11.0,90,0.00,,,0.00,,2013-03-11 23:32:00,
2013-03-11 19:43:00,41.0,39.0,30.22,SSW,209,6.0,13.0,91,0.00,,,0.00,,2013-03-11 23:43:00,
2013-03-11 19:53:00,41.0,39.0,30.22,SSW,209,6.0,13.0,91,0.00,,,0.00,,2013-03-11 23:53:00,
2013-03-11 20:02:00,41.0,39.0,30.21,SSE,149,1.0,10.0,91,0.00,,,0.00,,2013-03-12 00:02:00,
2013-03-11 20:12:00,41.0,39.0,30.21,SSE,149,1.0,10.0,91,0.00,,,0.00,,2013-03-12 00:12:00,
2013-03-11 20:23:00,41.0,39.0,30.21,SSE,161,3.0,9.0,91,0.00,,,0.00,,2013-03-12 00:23:00,
2013-03-11 20:33:00,41.0,39.0,30.21,South,184,1.0,7.0,92,0.00,,,0.00,,2013-03-12 00:33:00,
2013-03-11 20:42:00,41.0,39.0,30.21,South,184,1.0,7.0,92,0.00,,,0.00,,2013-03-12 00:42:00,
2013-03-11 20:54:00,41.0,39.0,30.21,South,184,1.0,7.0,92,0.00,,,0.00,,2013-03-12 00:54:00,
2013-03-11 21:02:00,41.0,39.0,30.21,South,184,1.0,7.0,92,0.00,,,0.00,,2013-03-12 01:02:00,
2013-03-11 21:12:00,41.0,39.0,30.21,South,184,1.0,7.0,92,0.00,,,0.00,,2013-03-12 01:12:00,